Location: Arbon
(43.0005°N, 0.7472°E)
Time: 09:37:19
(UTC+00:00)

Vanguard 2 Rocket - Pass Details

Date: 02 December 2020
Orbit: 554 x 3326 km, 32.9° (Epoch: 28 January)

Event Time Altitude Azimuth Distance (km) Brightness Sun altitude
Rises 03:17:34 0° 178° (S) 6,114 11.1 -41.7°
Reaches altitude 10° 03:24:18 10° 158° (SSE) 5,615 11.0 -40.5°
Maximum altitude 03:32:37 15° 129° (SE) 5,610 11.2 -39.0°
Drops below altitude 10° 03:41:40 10° 102° (ESE) 6,274 11.8 -37.4°
Sets 03:49:58 0° 84° (E) 7,264 12.5 -35.9°
